Voltar ao catálogo

STARLINK-34854

AtivoComunicaçõesVLEO
NORAD 65337·PAYLOAD·🇺🇸 United States

Lançado Aug 27, 2025 de Cape Canaveral Space Force Station

Loading…

Próximas Passagens (próximas 24 horas)

TLE

AtualizadoSource: CelesTrak SupGP

Época: Sep 14, 2026, 14:26 UTC

1 65337C 25189Q   26257.60187500 -.00037993  00000+0 -12219-2 0  2574
2 65337  53.1589  48.0072 0001077  89.9385  60.5300 15.31718714    18

Acompanhe STARLINK-34854 em tempo real com AllMySat

Download on the App Store